map of HUJ home
HUJ - Airport
Location
City:  Hugo, Oklahoma, United States
Name:Stan Stamper Municipal Airport
ICAO:KHHW
IATA:HUJ
FAA LID:HHW

Details
Type:Airport (Airfield)
Use:Public/Civil
Latitude:3402'01"N (34.033639)
Longitude:9532'31"W (-95.542055)
Datum:WGS 1984
Elevation:572 ft (174 m)
Variation:2.38E (WMM2015v2 magnetic declination)
-0.09 annual change
Runways:1
Longest:4007 × 75 ft (1221 × 23 m), paved

Time
Time Zone:UTC-6 (DST-5)
Local Time:

Weather
METAR:KHHW 041415Z AUTO 21007KT 4SM BR CLR 18/16 A2982 RMK AO2 T01780156

Related Locations
Nearby:
Farthest:RRG: 10815 mi / 17404 km
Plaine Corail [Sir Gatan Duval Airport (Plaine Corail Airport)], Rodrigues Island, MU

Find:

   beyond  
but within

Other Information
Maps:
NOTAMs:
Links:
Sources:

  
  • flag of United States
  • flag of Oklahoma
  

Sectional Chart

Flight Planning
at skyvector.com

Satellite Image

Google Maps Satellite view

 

Copyright © 2004-2019 Karl L. Swartz. All rights reserved.
The Great Circle Mapper name and logo are trademarks of the Great Circle Mapper.
All other trademarks mentioned herein belong to their respective owners.
Please see credits for attibutions and further copyright information.

  Follow gcmap on Facebook Follow gcmap on Twitter GCmap on LinkedIn

hCard Microformat

Geo Microformat